Hanamaulu, HI

7:14 AM HST on February 10, 2016 (GMT -1000)
Lihue

Weather History for PHLI - October, 2010

Change the Weather History Date:

Tuesday, October 26, 2010

  Actual Average Record
Temperature  
Mean Temperature 79 °F 78 °F  
Max Temperature 85 °F 83 °F 90 °F (1957)
Min Temperature 73 °F 72 °F 62 °F (1962)
Cooling Degree Days 14 12  
Month to date cooling degree days 387 348  
Year to date cooling degree days 3274 3307  
Growing Degree Days 28 (Base 50)    
Moisture  
Dew Point 70 °F    
Average Humidity 74    
Maximum Humidity 87    
Minimum Humidity 61    
Precipitation  
Precipitation 0.25 in 0.14 in 2.08 in (1982)
Month to date precipitation 0.62 3.11  
Year to date precipitation 12.79 26.68  
Snow  
Snow 0.00 in - - ()
Month to date snowfall 0.0  
Since 1 July snowfall 0.0  
Since 1 September snowfall 0.0  
Snow Depth 0.00 in    
Sea Level Pressure  
Sea Level Pressure 30.10 in    
Wind  
Wind Speed 18 mph (ENE)    
Max Wind Speed 29 mph    
Max Gust Speed 37 mph    
Visibility 9 miles    
Events Rain    
T = Trace of Precipitation, MM = Missing Value Source: NWS Daily Summary

Daily Weather History Graph

Daily Weather History Graph

Search for Another Location

Airport or City:

Trip Planner

Search our weather history database for the weather conditions in past years. The results will help you decide how hot, cold, wet, or windy it might be!

Date:

Astronomy

Oct. 26, 2010 Rise Set
Actual Time 6:38 AM HST 6:04 PM HST
Civil Twilight 6:15 AM HST 6:26 PM HST
Nautical Twilight 5:49 AM HST 6:53 PM HST
Astronomical Twilight 5:23 AM HST 7:19 PM HST
Moon 9:04 PM HST (10/26) 10:02 AM HST (10/26)
Length of Visible Light 12h 11m
Length of Day
11h 25m
Waning Gibbous, 85% of the Moon is Illuminated
Oct 26
Waning Gibbous
Oct 30
Last Quarter
Nov 5
New
Nov 13
First Quarter
Nov 21
Full

Hourly Weather History & Observations

Time (HST) Temp. Heat Index Dew Point Humidity Pressure Visibility Wind Dir Wind Speed Gust Speed Precip Events Conditions
12:06 AM 73.4 °F - 69.8 °F 88% 30.12 in 3.0 mi East 28.8 mph 36.8 mph 0.00 in Rain Rain
12:23 AM 73.4 °F - 69.8 °F 88% 30.12 in 9.0 mi East 13.8 mph 24.2 mph 0.04 in Rain Light Rain
12:53 AM 75.0 °F - 70.0 °F 84% 30.11 in 9.0 mi East 16.1 mph - 0.04 in Rain Light Rain
1:53 AM 75.9 °F - 70.0 °F 82% 30.10 in 10.0 mi ENE 16.1 mph - 0.00 in   Partly Cloudy
2:07 AM 77.0 °F - 69.8 °F 78% 30.10 in 9.0 mi ENE 20.7 mph 28.8 mph N/A   Mostly Cloudy
2:23 AM 75.2 °F - 69.8 °F 83% 30.10 in 10.0 mi ENE 16.1 mph - 0.00 in   Overcast
2:53 AM 75.9 °F - 69.1 °F 79% 30.10 in 10.0 mi NE 15.0 mph - 0.00 in   Mostly Cloudy
3:35 AM 77.0 °F - 69.8 °F 78% 30.10 in 10.0 mi ENE 16.1 mph - N/A   Mostly Cloudy
3:53 AM 77.0 °F - 69.1 °F 76% 30.09 in 10.0 mi ENE 15.0 mph - N/A   Overcast
4:23 AM 77.0 °F - 68.0 °F 74% 30.10 in 10.0 mi ENE 13.8 mph - N/A   Mostly Cloudy
4:33 AM 77.0 °F - 68.0 °F 74% 30.10 in 10.0 mi ENE 15.0 mph - N/A   Mostly Cloudy
4:53 AM 78.1 °F - 69.1 °F 74% 30.09 in 10.0 mi ENE 16.1 mph - N/A   Mostly Cloudy
5:53 AM 77.0 °F - 69.1 °F 76% 30.09 in 10.0 mi ENE 12.7 mph - N/A   Overcast
6:53 AM 78.1 °F - 68.0 °F 71% 30.10 in 10.0 mi ENE 16.1 mph - N/A   Scattered Clouds
7:53 AM 78.1 °F - 70.0 °F 76% 30.11 in 10.0 mi NE 19.6 mph - 0.00 in   Scattered Clouds
8:53 AM 79.0 °F - 68.0 °F 69% 30.12 in 10.0 mi ENE 15.0 mph - N/A   Mostly Cloudy
9:53 AM 80.1 °F 83.6 °F 71.1 °F 74% 30.13 in 10.0 mi NE 12.7 mph - N/A   Mostly Cloudy
10:53 AM 81.0 °F 84.4 °F 70.0 °F 69% 30.12 in 10.0 mi ENE 18.4 mph - N/A   Mostly Cloudy
11:53 AM 84.0 °F 88.4 °F 70.0 °F 63% 30.11 in 10.0 mi ENE 16.1 mph - N/A   Mostly Cloudy
12:27 PM 80.6 °F 83.9 °F 69.8 °F 70% 30.10 in 9.0 mi ENE 19.6 mph - 0.00 in Rain Light Rain
12:40 PM 82.4 °F 86.3 °F 69.8 °F 66% 30.10 in 10.0 mi ENE 20.7 mph 28.8 mph 0.00 in   Mostly Cloudy
12:53 PM 82.9 °F 87.0 °F 70.0 °F 65% 30.09 in 10.0 mi NE 20.7 mph 27.6 mph 0.00 in   Mostly Cloudy
1:53 PM 82.0 °F 85.9 °F 70.0 °F 67% 30.07 in 10.0 mi NE 18.4 mph - 0.00 in   Mostly Cloudy
2:53 PM 82.9 °F 87.0 °F 70.0 °F 65% 30.05 in 10.0 mi NE 20.7 mph - N/A   Scattered Clouds
3:53 PM 82.0 °F 86.3 °F 71.1 °F 69% 30.05 in 10.0 mi NE 18.4 mph - N/A   Partly Cloudy
4:53 PM 79.0 °F - 70.0 °F 74% 30.06 in 10.0 mi NE 19.6 mph - N/A   Mostly Cloudy
5:53 PM 78.1 °F - 70.0 °F 76% 30.06 in 10.0 mi ENE 21.9 mph - 0.02 in   Scattered Clouds
6:50 PM 78.8 °F - 69.8 °F 74% 30.08 in 10.0 mi NE 19.6 mph - N/A   Mostly Cloudy
6:53 PM 78.1 °F - 71.1 °F 79% 30.08 in 10.0 mi NE 21.9 mph - N/A   Mostly Cloudy
7:02 PM 78.8 °F - 73.4 °F 83% 30.09 in 10.0 mi NE 20.7 mph - N/A   Mostly Cloudy
7:53 PM 78.1 °F - 70.0 °F 76% 30.10 in 10.0 mi ENE 20.7 mph 27.6 mph 0.00 in Rain Light Rain
8:04 PM 77.0 °F - 71.6 °F 83% 30.11 in 9.0 mi NNE 21.9 mph - 0.00 in   Overcast
8:50 PM 75.2 °F - 71.6 °F 89% 30.12 in 2.5 mi East 19.6 mph 35.7 mph 0.03 in Rain Heavy Rain
8:53 PM 75.9 °F - 71.1 °F 85% 30.12 in 5.0 mi NE 20.7 mph 35.7 mph 0.17 in Rain Heavy Rain
9:05 PM 77.0 °F - 71.6 °F 83% 30.13 in 10.0 mi ENE 24.2 mph - 0.00 in   Overcast
9:30 PM 75.2 °F - 69.8 °F 83% 30.13 in 7.0 mi ENE 20.7 mph 28.8 mph 0.00 in Rain Light Rain
9:42 PM 75.2 °F - 69.8 °F 83% 30.13 in 10.0 mi ENE 15.0 mph - 0.01 in   Overcast
9:53 PM 77.0 °F - 70.0 °F 79% 30.12 in 10.0 mi ENE 19.6 mph 26.5 mph 0.01 in   Mostly Cloudy
10:53 PM 75.9 °F - 70.0 °F 82% 30.12 in 10.0 mi ENE 15.0 mph - 0.01 in   Overcast
11:53 PM 78.1 °F - 70.0 °F 76% 30.12 in 10.0 mi ENE 17.3 mph 27.6 mph 0.00 in   Overcast